SCP
0 0 0 0 0 0 0 0 0 0 0 0 0 0 0 0 0 0 0 0 0 0 0 0 0 0 0 0 0 0 0 0 0 0 0 0 0 0 0 0 0 0 0 1
0 0 0 0 0 0 0 0 0 0 0 0 0 -0 0 0 0 0 0 0 0 0 0 -0 0 0 0 0 0 0 0 0 0 0 0 0 0 0 0 0 0 0 1 1
0 0 0 0 0 0 0 0 0 0 0 0 0 -0 0 0 0 0 0 0 -0 -0 -0 -0 0 0 0 0 0 0 0 0 0 0 0 0 0 0 0 0 0 0 1 1
0 0 0 0 0 0 0 0 0 0 0 0 0 0 0 0 0 0 0 0 0 0 0 0 0 0 0 0 0 0 0 0 0 0 0 0 0 -0 -0 0 0 1 1 1
0 0 0 0 0 0 0 0 0 0 0 0 0 1 1 1 1 1 1 0 1 0 0 0 0 0 0 0 0 0 0 0 0 0 0 0 -0 -0 -0 0 0 1 1 1
0 0 0 0 0 0 0 0 0 0 0 0 0 0 1 1 1 1 1 1 0 0 0 0 0 0 0 0 -0 0 0 0 0 0 0 -0 -0 -0 -0 0 0 0 1 0
0 0 0 0 0 0 0 0 0 0 0 0 0 0 1 1 1 1 1 2 2 1 1 0 0 0 0 0 0 0 0 0 0 0 0 0 0 0 0 0 0 0 0 0
0 0 0 0 0 0 0 0 0 0 0 0 0 0 0 0 0 0 0 1 2 4 3 1 0 0 -0 0 0 0 0 0 0 0 0 1 0 0 0 0 0 0 0 0
0 0 0 0 0 0 0 0 0 0 0 0 0 0 0 0 0 0 0 0 2 3 4 2 1 0 -0 0 1 1 1 0 0 1 1 1 1 1 1 1 1 0 0 0
0 0 0 0 0 0 0 0 0 0 0 0 0 0 0 0 0 0 0 0 0 1 1 1 1 2 1 0 1 1 1 1 2 2 2 2 2 2 2 1 1 0 0 0
0 0 0 0 0 0 0 0 0 0 0 0 0 0 0 0 0 0 0 0 0 0 0 0 0 1 1 1 1 1 1 2 3 3 2 2 2 1 2 1 1 0 0 0
0 0 0 0 0 0 0 0 0 0 0 0 0 0 0 0 0 0 0 0 0 0 0 0 1 1 1 1 1 1 1 2 2 3 2 0 0 0 0 0 0 0 0 0
0 0 0 0 0 0 0 0 0 0 0 0 0 0 0 0 0 0 0 0 0 0 0 1 1 2 2 2 2 2 2 3 3 3 2 1 1 2 0 0 0 0 0 0
0 0 0 0 0 0 0 0 0 0 0 0 0 0 0 0 0 0 0 0 0 0 0 0 1 0 1 3 2 2 3 3 3 3 2 1 2 2 1 1 0 0 0 0
0 0 0 0 0 0 0 0 0 0 0 0 0 0 0 0 0 0 0 0 0 0 0 0 0 0 0 2 2 2 2 2 3 3 2 2 2 2 1 1 0 0 0 0
0 0 0 0 0 0 0 0 0 0 0 0 0 0 0 0 0 0 0 0 0 0 0 0 0 0 0 2 3 2 2 2 2 2 2 3 2 2 1 1 0 0 0 0
0 0 0 0 0 0 0 0 0 0 0 0 0 0 0 0 0 0 0 0 0 0 0 0 0 0 0 3 2 3 3 2 2 2 2 2 2 2 0 0 0 0 0 0
0 0 0 0 0 0 0 0 0 0 0 0 0 0 0 0 0 0 0 0 0 0 0 0 0 0 0 0 0 1 2 1 1 1 1 1 1 1 0 0 0 0 0 0
0 0 0 0 0 0 0 0 0 0 0 0 0 0 0 0 0 0 0 0 0 0 0 0 0 0 0 0 0 0 1 1 1 1 1 1 1 0 0 0 0 0 0 0
0 0 0 0 0 0 0 0 0 0 0 0 0 0 0 0 0 0 0 -0 0 0 0 0 0 0 0 0 0 0 0 1 1 1 1 1 1 0 0 0 0 0 0 0
-0 0 0 0 0 0 0 0 0 0 0 0 0 0 0 0 0 0 0 0 0 0 0 0 0 0 0 0 0 0 0 0 1 1 1 1 1 0 0 0 0 0 0 0
-0 0 0 0 0 0 0 0 0 0 0 0 0 0 0 0 0 -0 -0 0 0 0 0 0 0 0 0 0 0 0 0 0 0 0 1 1 1 0 0 0 0 0 0 0
-0 -0 -0 0 0 0 -0 -0 0 0 0 0 0 0 0 0 0 0 0 0 0 0 0 0 0 0 0 0 0 0 0 0 0 0 0 1 1 1 0 0 0 0 0 0
-0 -0 -0 -0 -0 -0 -0 -0 -0 -0 -0 -0 0 0 0 0 0 0 0 0 0 0 0 0 0 0 0 0 0 0 0 0 0 0 0 0 0 0 0 0 0 0 0 0
0 0 -0 -0 -0 -0 -0 -0 -0 -0 -0 -0 -0 -0 -0 -0 -0 0 0 0 0 0 0 0 0 0 0 0 0 0 0 0 0 0 0 0 0 0 0 0 0 0 0 0
0 0 0 0 -0 -0 -0 -0 -0 -0 -0 -0 -0 -0 -0 -0 -0 -0 0 0 0 0 0 0 0 0 0 0 0 0 0 0 0 0 0 0 0 0 0 0 0 0 0 0
0 0 0 0 0 0 -0 -0 -0 -0 -0 -0 -0 -0 -0 -0 -0 -0 -0 0 0 0 0 0 0 0 0 0 0 0 0 0 0 0 0 0 0 0 0 0 0 0 0 0
Wind_Speed_500mb
14 17 9 10 14 11 10 11 11 13 17 19 14 13 21 49 50 50 57 44 48 70 78 82 83 85 85 82 75 67 65 65 62 49 47 44 45 41 39 39 34 30 28 26
10 10 6 9 15 16 15 12 11 11 16 14 19 4 20 36 40 37 52 71 64 62 73 80 82 84 79 76 69 62 57 51 46 47 47 44 40 36 34 33 28 27 24 17
9 7 14 3 8 7 7 12 9 11 18 11 7 14 21 40 34 29 19 23 50 62 59 73 76 78 71 62 60 56 46 44 46 43 41 38 35 35 32 29 26 22 14 9
9 8 9 10 11 7 12 18 22 16 22 23 14 15 5 27 33 25 13 3 18 32 41 56 68 69 59 55 46 50 48 42 38 36 36 36 34 33 29 27 25 17 10 20
5 4 4 8 14 12 9 8 26 26 29 40 25 29 16 18 20 25 14 6 7 19 33 50 59 58 55 54 48 52 49 40 35 35 35 34 34 29 27 27 24 20 18 21
7 1 3 7 33 41 14 2 29 31 26 25 24 9 7 19 34 29 17 12 11 12 29 39 50 52 51 53 55 53 50 38 31 30 33 34 30 30 30 29 25 21 23 21
10 3 5 28 45 17 9 10 45 38 35 36 8 10 2 27 34 31 30 22 19 23 21 31 43 49 50 48 52 45 39 36 36 34 33 33 36 37 35 33 30 26 27 24
5 7 3 56 20 15 23 26 24 41 39 35 33 25 20 20 29 35 39 41 34 33 31 32 42 45 52 49 38 39 41 43 42 42 43 44 44 43 41 40 36 32 35 30
6 8 3 21 21 35 49 26 33 46 42 34 39 38 30 26 23 27 28 37 36 42 39 32 30 33 35 30 33 36 41 45 47 46 49 47 46 46 46 47 43 40 41 38
4 2 17 30 57 65 63 60 34 38 47 46 46 40 37 35 34 27 20 21 24 29 32 29 29 29 30 32 34 36 36 36 39 44 46 44 43 47 51 53 48 47 46 47
6 13 22 33 63 62 68 67 47 21 43 50 51 52 47 44 39 32 25 15 12 15 25 24 20 21 25 28 29 28 28 32 36 41 44 45 48 52 52 47 43 48 51 56
5 11 14 20 49 57 65 68 63 23 35 45 48 51 50 50 45 38 30 24 16 10 8 14 15 19 23 24 23 20 20 22 26 34 38 43 48 51 51 42 33 38 35 45
11 26 11 26 7 38 50 53 56 41 34 36 41 43 44 49 48 44 40 35 27 22 13 5 9 11 14 20 21 18 18 22 29 31 32 44 50 55 50 47 42 42 43 44
23 21 5 32 29 39 27 39 38 39 35 42 43 39 40 45 45 48 52 45 32 25 18 15 11 5 10 16 16 16 17 23 28 32 38 40 54 55 49 53 61 55 52 49
30 17 17 22 29 28 23 22 37 35 37 34 37 43 36 41 47 48 46 42 35 26 23 19 16 5 8 17 16 12 17 24 31 38 41 45 54 56 50 59 64 61 60 58
26 20 23 25 27 28 30 23 29 38 38 37 35 38 29 28 32 36 39 44 47 44 38 31 25 18 7 15 21 20 23 32 26 31 39 47 52 58 56 65 68 68 72 72
31 36 34 30 29 29 29 29 25 30 35 37 33 30 27 33 33 40 44 43 38 29 28 32 29 27 24 19 24 26 30 41 44 34 35 44 57 56 59 68 73 74 78 79
19 16 21 22 20 18 18 25 29 31 32 31 25 19 21 32 39 41 42 37 28 20 25 28 30 24 24 28 32 28 34 40 51 49 46 43 53 58 64 70 74 77 82 77
32 27 23 22 23 21 18 16 22 28 26 25 22 21 23 21 26 30 31 33 33 33 39 33 33 30 24 20 27 34 32 42 42 56 59 50 47 59 65 71 76 80 81 79
40 43 39 33 31 31 25 24 22 21 17 19 18 19 20 20 22 24 28 30 38 40 35 34 34 31 27 27 21 24 21 26 46 50 55 50 48 58 63 68 74 82 86 85
40 45 46 46 49 48 45 38 33 36 32 22 22 23 26 26 25 29 31 31 33 33 31 30 35 38 38 31 32 28 27 22 19 49 58 55 45 54 60 67 74 82 88 87
30 41 47 49 49 51 50 48 47 46 45 43 38 34 30 31 31 31 31 37 34 33 34 32 34 36 39 37 31 32 31 32 30 26 41 58 58 60 60 63 67 75 86 87
22 24 30 39 45 50 54 57 57 54 50 49 52 52 49 43 40 41 40 39 37 35 36 35 35 36 36 36 37 32 28 26 25 36 41 38 67 70 69 58 66 64 69 82
17 29 25 23 25 28 39 45 49 51 52 52 45 43 48 52 54 58 49 43 39 35 32 33 30 30 30 32 32 32 33 32 27 30 36 44 47 73 57 61 59 59 67 65
14 23 24 17 16 20 25 30 36 44 51 54 55 44 39 38 45 51 59 57 50 45 38 36 34 29 25 20 20 21 23 30 38 33 23 27 49 57 56 47 53 54 62 64
26 27 30 32 17 12 14 17 20 29 39 45 49 52 55 58 56 50 48 49 54 48 43 42 41 40 35 29 21 17 16 19 28 28 26 27 17 56 71 78 74 95 73 52
18 17 19 20 28 17 12 16 18 16 22 33 36 42 46 46 50 54 55 59 59 52 53 48 40 36 34 35 28 20 17 14 17 24 22 21 34 25 48 59 72 76 62 52
Wind_Direction_500mb
247 243 217 238 256 266 197 222 182 226 200 244 215 224 241 228 229 225 213 207 221 222 221 224 224 225 230 230 232 234 232 233 233 234 237 243 249 255 261 267 272 276 275 282
274 263 248 244 239 235 229 237 237 242 238 232 258 215 185 196 212 227 225 224 225 222 219 221 224 224 226 228 229 232 230 229 229 232 236 238 242 246 255 264 268 268 273 286
264 294 296 194 328 333 282 37 307 183 226 193 216 172 185 160 157 120 107 150 206 213 223 225 224 222 220 225 227 224 224 224 225 225 227 228 235 246 254 260 265 267 273 265
259 330 189 170 30 13 114 65 11 328 320 308 198 190 258 178 131 116 134 119 186 214 227 230 223 225 223 216 214 212 211 209 212 214 220 228 239 247 250 254 260 264 242 252
213 240 290 6 10 326 5 317 14 334 331 318 168 121 72 127 152 155 167 209 197 227 244 235 225 222 214 208 202 207 207 206 210 218 227 234 238 241 246 252 250 243 241 247
316 138 138 274 323 308 194 263 359 350 338 324 304 115 247 116 111 121 147 202 201 193 225 228 223 214 205 205 206 209 213 209 211 220 232 237 237 242 246 245 242 226 229 234
249 204 27 341 326 324 62 315 331 345 357 354 37 347 336 111 101 109 117 141 142 143 188 199 207 203 204 207 213 223 226 226 232 233 236 242 246 246 244 238 233 217 220 212
186 76 359 349 354 55 321 339 355 15 16 32 49 65 87 101 104 110 109 116 135 137 163 187 205 208 212 219 227 233 238 240 242 245 247 248 248 246 234 231 227 209 212 200
83 146 347 22 38 6 7 350 22 33 28 35 50 45 48 51 74 91 99 116 122 141 135 147 172 194 211 218 231 239 243 247 249 250 249 249 243 237 225 224 221 207 205 198
125 24 333 35 18 12 12 15 5 40 42 41 44 41 43 49 51 58 71 95 121 150 153 155 165 180 194 208 220 233 241 247 251 250 247 242 235 230 226 220 216 207 202 197
46 352 353 18 14 358 17 27 23 26 49 45 44 41 37 41 44 43 38 57 90 129 161 182 189 196 199 203 212 221 231 241 247 249 245 238 229 226 227 232 236 218 212 200
53 341 324 298 350 2 27 25 25 35 35 45 41 40 37 38 35 34 33 34 45 64 134 166 192 194 197 205 209 216 237 249 251 243 237 235 234 224 221 226 231 223 241 209
349 332 320 340 1 11 19 26 33 39 25 27 35 32 32 32 31 30 31 33 31 26 15 318 266 241 232 229 225 222 248 259 254 249 240 234 229 224 211 211 207 203 214 207
4 7 332 12 355 4 2 21 24 36 51 31 31 28 25 25 23 26 29 28 28 24 19 9 335 300 226 212 227 242 264 272 271 260 239 233 230 221 219 215 199 199 203 197
23 23 8 9 11 14 10 1 5 16 13 16 21 19 22 20 17 17 14 18 29 36 32 19 8 336 215 197 203 250 282 278 265 257 246 236 229 219 225 217 209 205 193 188
18 32 23 13 15 14 16 16 343 351 356 359 3 8 20 17 10 4 9 15 23 27 24 15 5 352 320 259 263 261 266 269 267 262 249 239 231 222 225 216 212 203 196 192
6 11 10 14 6 20 14 12 11 357 346 348 356 7 20 11 6 9 8 11 19 19 22 17 9 360 342 300 264 262 268 269 261 257 251 241 229 230 233 222 215 209 203 200
35 24 5 6 358 356 4 6 5 6 0 352 0 9 2 11 13 6 4 2 2 20 24 25 14 6 353 328 297 287 276 268 261 244 246 242 236 239 234 223 217 212 207 203
35 37 30 16 359 356 8 10 1 356 353 3 16 31 35 17 10 12 4 357 12 22 25 17 13 3 354 347 310 297 286 279 264 249 238 238 239 236 233 223 218 214 210 204
52 54 54 46 40 41 33 22 19 10 6 11 19 16 22 18 17 5 1 0 12 19 16 9 5 357 354 351 337 311 271 272 257 257 248 240 239 238 232 225 222 216 212 209
59 58 57 55 51 49 50 47 39 35 28 14 14 11 10 1 3 360 346 342 347 357 358 1 1 358 359 343 337 333 307 302 247 246 241 239 241 240 233 229 223 218 216 214
63 60 58 58 58 55 48 43 44 44 39 35 28 19 9 3 357 359 354 349 348 349 348 346 342 348 348 350 344 342 330 310 295 270 244 245 241 242 232 227 225 223 221 219
54 51 52 55 54 53 54 54 48 40 32 28 29 30 28 21 10 357 343 346 355 353 344 343 333 330 331 334 344 346 338 315 305 275 276 258 244 241 239 233 230 227 229 225
27 22 15 19 31 42 51 52 49 49 44 37 29 26 24 28 30 23 17 10 1 356 351 346 337 330 326 322 326 342 344 341 313 314 277 268 255 232 225 219 228 235 232 228
25 12 3 6 2 4 23 33 36 41 42 40 41 42 34 29 25 22 22 22 21 15 8 360 352 342 339 332 325 322 332 334 341 310 271 246 236 233 203 201 216 261 256 246
81 63 51 39 22 13 359 0 18 29 34 37 40 42 42 39 35 30 27 28 31 25 17 16 12 9 5 2 353 335 323 325 316 327 302 260 229 227 234 236 222 205 234 236
64 41 27 27 28 19 1 353 347 353 29 37 36 35 31 29 30 32 33 33 30 24 24 22 14 10 9 10 7 360 3 8 329 321 323 301 262 233 199 209 202 206 223 222
Wind_Speed_850mb
14 17 9 10 14 11 10 11 11 13 17 19 14 13 21 49 50 50 57 44 48 70 78 82 83 85 85 82 75 67 65 65 62 49 47 44 45 41 39 39 34 30 28 26
10 10 6 9 15 16 15 12 11 11 16 14 19 4 20 36 40 37 52 71 64 62 73 80 82 84 79 76 69 62 57 51 46 47 47 44 40 36 34 33 28 27 24 17
9 7 14 3 8 7 7 12 9 11 18 11 7 14 21 40 34 29 19 23 50 62 59 73 76 78 71 62 60 56 46 44 46 43 41 38 35 35 32 29 26 22 14 9
9 8 9 10 11 7 12 18 22 16 22 23 14 15 5 27 33 25 13 3 18 32 41 56 68 69 59 55 46 50 48 42 38 36 36 36 34 33 29 27 25 17 10 20
5 4 4 8 14 12 9 8 26 26 29 40 25 29 16 18 20 25 14 6 7 19 33 50 59 58 55 54 48 52 49 40 35 35 35 34 34 29 27 27 24 20 18 21
7 1 3 7 33 41 14 2 29 31 26 25 24 9 7 19 34 29 17 12 11 12 29 39 50 52 51 53 55 53 50 38 31 30 33 34 30 30 30 29 25 21 23 21
10 3 5 28 45 17 9 10 45 38 35 36 8 10 2 27 34 31 30 22 19 23 21 31 43 49 50 48 52 45 39 36 36 34 33 33 36 37 35 33 30 26 27 24
5 7 3 56 20 15 23 26 24 41 39 35 33 25 20 20 29 35 39 41 34 33 31 32 42 45 52 49 38 39 41 43 42 42 43 44 44 43 41 40 36 32 35 30
6 8 3 21 21 35 49 26 33 46 42 34 39 38 30 26 23 27 28 37 36 42 39 32 30 33 35 30 33 36 41 45 47 46 49 47 46 46 46 47 43 40 41 38
4 2 17 30 57 65 63 60 34 38 47 46 46 40 37 35 34 27 20 21 24 29 32 29 29 29 30 32 34 36 36 36 39 44 46 44 43 47 51 53 48 47 46 47
6 13 22 33 63 62 68 67 47 21 43 50 51 52 47 44 39 32 25 15 12 15 25 24 20 21 25 28 29 28 28 32 36 41 44 45 48 52 52 47 43 48 51 56
5 11 14 20 49 57 65 68 63 23 35 45 48 51 50 50 45 38 30 24 16 10 8 14 15 19 23 24 23 20 20 22 26 34 38 43 48 51 51 42 33 38 35 45
11 26 11 26 7 38 50 53 56 41 34 36 41 43 44 49 48 44 40 35 27 22 13 5 9 11 14 20 21 18 18 22 29 31 32 44 50 55 50 47 42 42 43 44
23 21 5 32 29 39 27 39 38 39 35 42 43 39 40 45 45 48 52 45 32 25 18 15 11 5 10 16 16 16 17 23 28 32 38 40 54 55 49 53 61 55 52 49
30 17 17 22 29 28 23 22 37 35 37 34 37 43 36 41 47 48 46 42 35 26 23 19 16 5 8 17 16 12 17 24 31 38 41 45 54 56 50 59 64 61 60 58
26 20 23 25 27 28 30 23 29 38 38 37 35 38 29 28 32 36 39 44 47 44 38 31 25 18 7 15 21 20 23 32 26 31 39 47 52 58 56 65 68 68 72 72
31 36 34 30 29 29 29 29 25 30 35 37 33 30 27 33 33 40 44 43 38 29 28 32 29 27 24 19 24 26 30 41 44 34 35 44 57 56 59 68 73 74 78 79
19 16 21 22 20 18 18 25 29 31 32 31 25 19 21 32 39 41 42 37 28 20 25 28 30 24 24 28 32 28 34 40 51 49 46 43 53 58 64 70 74 77 82 77
32 27 23 22 23 21 18 16 22 28 26 25 22 21 23 21 26 30 31 33 33 33 39 33 33 30 24 20 27 34 32 42 42 56 59 50 47 59 65 71 76 80 81 79
40 43 39 33 31 31 25 24 22 21 17 19 18 19 20 20 22 24 28 30 38 40 35 34 34 31 27 27 21 24 21 26 46 50 55 50 48 58 63 68 74 82 86 85
40 45 46 46 49 48 45 38 33 36 32 22 22 23 26 26 25 29 31 31 33 33 31 30 35 38 38 31 32 28 27 22 19 49 58 55 45 54 60 67 74 82 88 87
30 41 47 49 49 51 50 48 47 46 45 43 38 34 30 31 31 31 31 37 34 33 34 32 34 36 39 37 31 32 31 32 30 26 41 58 58 60 60 63 67 75 86 87
22 24 30 39 45 50 54 57 57 54 50 49 52 52 49 43 40 41 40 39 37 35 36 35 35 36 36 36 37 32 28 26 25 36 41 38 67 70 69 58 66 64 69 82
17 29 25 23 25 28 39 45 49 51 52 52 45 43 48 52 54 58 49 43 39 35 32 33 30 30 30 32 32 32 33 32 27 30 36 44 47 73 57 61 59 59 67 65
14 23 24 17 16 20 25 30 36 44 51 54 55 44 39 38 45 51 59 57 50 45 38 36 34 29 25 20 20 21 23 30 38 33 23 27 49 57 56 47 53 54 62 64
26 27 30 32 17 12 14 17 20 29 39 45 49 52 55 58 56 50 48 49 54 48 43 42 41 40 35 29 21 17 16 19 28 28 26 27 17 56 71 78 74 95 73 52
18 17 19 20 28 17 12 16 18 16 22 33 36 42 46 46 50 54 55 59 59 52 53 48 40 36 34 35 28 20 17 14 17 24 22 21 34 25 48 59 72 76 62 52
Wind_Direction_850mb
247 243 217 238 256 266 197 222 182 226 200 244 215 224 241 228 229 225 213 207 221 222 221 224 224 225 230 230 232 234 232 233 233 234 237 243 249 255 261 267 272 276 275 282
274 263 248 244 239 235 229 237 237 242 238 232 258 215 185 196 212 227 225 224 225 222 219 221 224 224 226 228 229 232 230 229 229 232 236 238 242 246 255 264 268 268 273 286
264 294 296 194 328 333 282 37 307 183 226 193 216 172 185 160 157 120 107 150 206 213 223 225 224 222 220 225 227 224 224 224 225 225 227 228 235 246 254 260 265 267 273 265
259 330 189 170 30 13 114 65 11 328 320 308 198 190 258 178 131 116 134 119 186 214 227 230 223 225 223 216 214 212 211 209 212 214 220 228 239 247 250 254 260 264 242 252
213 240 290 6 10 326 5 317 14 334 331 318 168 121 72 127 152 155 167 209 197 227 244 235 225 222 214 208 202 207 207 206 210 218 227 234 238 241 246 252 250 243 241 247
316 138 138 274 323 308 194 263 359 350 338 324 304 115 247 116 111 121 147 202 201 193 225 228 223 214 205 205 206 209 213 209 211 220 232 237 237 242 246 245 242 226 229 234
249 204 27 341 326 324 62 315 331 345 357 354 37 347 336 111 101 109 117 141 142 143 188 199 207 203 204 207 213 223 226 226 232 233 236 242 246 246 244 238 233 217 220 212
186 76 359 349 354 55 321 339 355 15 16 32 49 65 87 101 104 110 109 116 135 137 163 187 205 208 212 219 227 233 238 240 242 245 247 248 248 246 234 231 227 209 212 200
83 146 347 22 38 6 7 350 22 33 28 35 50 45 48 51 74 91 99 116 122 141 135 147 172 194 211 218 231 239 243 247 249 250 249 249 243 237 225 224 221 207 205 198
125 24 333 35 18 12 12 15 5 40 42 41 44 41 43 49 51 58 71 95 121 150 153 155 165 180 194 208 220 233 241 247 251 250 247 242 235 230 226 220 216 207 202 197
46 352 353 18 14 358 17 27 23 26 49 45 44 41 37 41 44 43 38 57 90 129 161 182 189 196 199 203 212 221 231 241 247 249 245 238 229 226 227 232 236 218 212 200
53 341 324 298 350 2 27 25 25 35 35 45 41 40 37 38 35 34 33 34 45 64 134 166 192 194 197 205 209 216 237 249 251 243 237 235 234 224 221 226 231 223 241 209
349 332 320 340 1 11 19 26 33 39 25 27 35 32 32 32 31 30 31 33 31 26 15 318 266 241 232 229 225 222 248 259 254 249 240 234 229 224 211 211 207 203 214 207
4 7 332 12 355 4 2 21 24 36 51 31 31 28 25 25 23 26 29 28 28 24 19 9 335 300 226 212 227 242 264 272 271 260 239 233 230 221 219 215 199 199 203 197
23 23 8 9 11 14 10 1 5 16 13 16 21 19 22 20 17 17 14 18 29 36 32 19 8 336 215 197 203 250 282 278 265 257 246 236 229 219 225 217 209 205 193 188
18 32 23 13 15 14 16 16 343 351 356 359 3 8 20 17 10 4 9 15 23 27 24 15 5 352 320 259 263 261 266 269 267 262 249 239 231 222 225 216 212 203 196 192
6 11 10 14 6 20 14 12 11 357 346 348 356 7 20 11 6 9 8 11 19 19 22 17 9 360 342 300 264 262 268 269 261 257 251 241 229 230 233 222 215 209 203 200
35 24 5 6 358 356 4 6 5 6 0 352 0 9 2 11 13 6 4 2 2 20 24 25 14 6 353 328 297 287 276 268 261 244 246 242 236 239 234 223 217 212 207 203
35 37 30 16 359 356 8 10 1 356 353 3 16 31 35 17 10 12 4 357 12 22 25 17 13 3 354 347 310 297 286 279 264 249 238 238 239 236 233 223 218 214 210 204
52 54 54 46 40 41 33 22 19 10 6 11 19 16 22 18 17 5 1 0 12 19 16 9 5 357 354 351 337 311 271 272 257 257 248 240 239 238 232 225 222 216 212 209
59 58 57 55 51 49 50 47 39 35 28 14 14 11 10 1 3 360 346 342 347 357 358 1 1 358 359 343 337 333 307 302 247 246 241 239 241 240 233 229 223 218 216 214
63 60 58 58 58 55 48 43 44 44 39 35 28 19 9 3 357 359 354 349 348 349 348 346 342 348 348 350 344 342 330 310 295 270 244 245 241 242 232 227 225 223 221 219
54 51 52 55 54 53 54 54 48 40 32 28 29 30 28 21 10 357 343 346 355 353 344 343 333 330 331 334 344 346 338 315 305 275 276 258 244 241 239 233 230 227 229 225
27 22 15 19 31 42 51 52 49 49 44 37 29 26 24 28 30 23 17 10 1 356 351 346 337 330 326 322 326 342 344 341 313 314 277 268 255 232 225 219 228 235 232 228
25 12 3 6 2 4 23 33 36 41 42 40 41 42 34 29 25 22 22 22 21 15 8 360 352 342 339 332 325 322 332 334 341 310 271 246 236 233 203 201 216 261 256 246
81 63 51 39 22 13 359 0 18 29 34 37 40 42 42 39 35 30 27 28 31 25 17 16 12 9 5 2 353 335 323 325 316 327 302 260 229 227 234 236 222 205 234 236
64 41 27 27 28 19 1 353 347 353 29 37 36 35 31 29 30 32 33 33 30 24 24 22 14 10 9 10 7 360 3 8 329 321 323 301 262 233 199 209 202 206 223 222